Location: Kershaw
(34.5481°N, 80.5823°W)
Time: 20:17:28
(UTC+00:00)

deb Explorer IX - Pass Details

Date: 05 October 2022
Orbit: 533 x 1057 km, 38.8° (Epoch: 06 December)

Event Time Altitude Azimuth Distance (km) Brightness Sun altitude
Exits shadow 09:10:42 23° 149° (SSE) 1,286 ? -27.3°
Maximum altitude 09:10:59 23° 143° (SE) 1,287 ? -27.2°
Drops below altitude 10° 09:14:44 10° 90° (E) 2,071 ? -26.5°
Sets 09:17:39 0° 77° (ENE) 3,088 ? -25.9°
